Regional Weather Roundup
Issued by NWS

Home | Current Version | Previous Version | Text Only | Print | Product List | Glossary On
Versions: 1 2 3 4 5 6 7 8 9 10 11 12 13 14 15 16 17 18 19 20 21 22 23 24 25 26 27 28 29 30 31 32 33 34 35 36 37 38 39 40 41 42 43 44 45 46 47 48 49 50
000
ASUS45 KSLC 160110
RWRUT

UTAH REGIONAL WEATHER ROUNDUP
NATIONAL WEATHER SERVICE SALT LAKE CITY UT
700 PM MDT MON SEP 15 2014

UTZ001>011-023>025-160200-

NORTHERN UTAH

CITY           SKY/WX    TMP DP  RH WIND       PRES   REMARKS
HILL AFB       CLEAR     83  36  18 NW1       30.10F
LOGAN          CLEAR     85  40  20 S5        30.06F
OGDEN          CLEAR     85  35  16 NW3       30.06F
PROVO AIRPORT  PTCLDY    77  52  41 VRB5      30.06F
SALT LAKE CITY PTCLDY    86  37  17 N6        30.04F
VERNAL         PTCLDY    77  43  29 CALM      30.14F
WENDOVER       PTCLDY    86  32  14 S5        30.05S
HEBER CITY     PTCLDY    77  37  24 SW5       30.16S
WEST JORDAN    CLEAR     82  39  21 NW5       30.09F

$$

UTZ012>022-026-027-160200-

SOUTHERN UTAH

CITY           SKY/WX    TMP DP  RH WIND       PRES   REMARKS
BRYCE CANYON   PTCLDY    68  41  37 SW7       30.32S
CEDAR CITY     PTCLDY    80  43  26 W6        30.14S
MILFORD        PTCLDY    82  39  21 N12       30.10S
MOAB/CYNLANDS  CLEAR     88  33  14 NW7       30.04S
PRICE          MOCLDY    81  34  18 S5        30.17F
ST GEORGE      PTCLDY    97  43  15 W6        29.93S HX  92
KANAB            N/A     88  34  14 S3        30.11S

$$

REGIONAL REPORTS     COLORADO/ARIZONA

CITY           SKY/WX    TMP DP  RH WIND       PRES   REMARKS
CRAIG, CO      MOCLDY    71  40  32 S10       30.22S
GRAND JUNCTION CLEAR     81  44  27 W5        30.10F
RIFLE          PTCLDY    78  42  27 W3        30.18S
MONTROSE       CLEAR     79  43  27 NW3       30.18F
CORTEZ         CLEAR     80  41  24 W5        30.18S
PAGE, AZ       CLEAR     91  40  16 SE13      30.04S
GRAND CANYON   CLEAR     79  41  25 CALM      30.23F
KINGMAN        CLEAR     94  44  17 W5        29.96S HX  90
FLAGSTAFF      MOCLDY    70  48  45 SW12      30.29R

$$

REGIONAL REPORTS    NEVADA/IDAHO/WYOMING

CITY           SKY/WX    TMP DP  RH WIND       PRES   REMARKS
LAS VEGAS, NV  PTCLDY   101  41  12 VRB5      29.81S HX  96
ELY            PTCLDY    80  36  20 SE8       30.17F
ELKO           CLEAR     87  26  11 CALM      30.06F
POCATELLO, ID  PTCLDY    84  36  18 W6        30.07S
BURLEY         PTCLDY    78  42  27 SE7       30.03S
EVANSTON, WY   CLEAR     73  29  19 W13       30.28S
ROCK SPRINGS   PTCLDY    72  33  24 SW9       30.23S

$$


USA.gov is the U.S. government's official web portal to all federal, state and local government web resources and services.